Tracking 19638 objects as of 20-Apr-2019
HD Live streaming from Space Station
objects crossing your sky now

SCOUT G-1 DEB

Track SCOUT G-1 DEB now!
10-day predictions


NORAD ID: 19140
Int'l Code: 1988-033F
Perigee: 880.2 km
Apogee: 1,243.2 km
Inclination: 90.3 °
Period: 106.3 minutes
Semi major axis: 7432 km
RCS: 0.0071 m2 (small)
Launch date: April 26, 1988
Source: United States (US)
Launch site: AIR FORCE WESTERN TEST RANGE (AFWTR)

Note: This is SATELLITE DEBRIS
aabbcc
Your satellite tracking list
Your tracking list is empty




NASA's NSSDC Master Catalog

Two Line Element Set (TLE):
1 19140U 88033F   19110.49676675  .00000711  00000-0  84933-3 0  9998
2 19140  90.3346 289.7131 0244157 265.7482 159.3153 13.54819984517428
Source of the keplerian elements: AFSPC